User: anonymous   Login
Location: Unspecified
(0.0000°N, 0.0000°E)
Time: 07:22:38
(UTC+01:00)
Language:

Cosmos 1703 Rocket - Orbit

View from above orbital plane
View from above orbital plane
View from above satellite
View from above satellite

Ground track
Ground track

The orbit data is extracted from the following two-line orbital elements,

1 16263U 85108B   15024.65150529  .00000307  00000-0  35161-4 0  8770
2 16263 082.5022 214.5749 0019655 351.8030 052.5203 14.82630562574782
Epoch (UTC): 24 January 2015 15:38:10
Eccentricity: 0.0019655
inclination: 82.5022°
perigee height: 607 km
apogee height: 635 km
right ascension of ascending node: 214.5749°
argument of perigee: 351.8030°
revolutions per day: 14.82630562
mean anomaly at epoch: 52.5203°
orbit number at epoch: 57478

The dashed part of the orbit path shows where the satellite is in the earth's shadow,  

DLR